TimeGMT,TemperatureF,Dew PointF,Humidity,Sea Level PressureIn,VisibilityMPH,Wind Direction,Wind SpeedMPH,Gust SpeedMPH,PrecipitationIn,Events,Conditions,WindDirDegrees,DateUTC
12:50 AM,48.2,44.6,87,29.71,1.1,WNW,3.5,-,N/A,,Mostly Cloudy,300,2012-11-21 00:50:00
1:50 AM,46.4,44.6,93,29.71,3.7,ENE,8.1,-,N/A,,Mostly Cloudy,70,2012-11-21 01:50:00
2:50 AM,45,43,91,29.71,4,ENE,4.6,,,,Mostly Cloudy,60,2012-11-21 02:50:00
2:50 AM,44.6,42.8,93,29.68,3.7,ENE,4.6,-,N/A,,Mostly Cloudy,60,2012-11-21 02:50:00
3:50 AM,44.6,42.8,93,29.68,4.3,ENE,3.5,-,N/A,,Overcast,70,2012-11-21 03:50:00
4:50 AM,44.6,42.8,93,29.68,4.3,NE,8.1,-,N/A,,Overcast,50,2012-11-21 04:50:00
5:50 AM,44,42,89,29.69,8,NNE,9.2,,,,Mostly Cloudy,20,2012-11-21 05:50:00
5:50 AM,44.6,41.0,87,29.68,6.2,NNE,9.2,-,N/A,,Mostly Cloudy,20,2012-11-21 05:50:00
6:50 AM,42.8,41.0,93,29.65,5.6,NNE,10.4,-,N/A,,Mostly Cloudy,20,2012-11-21 06:50:00
7:50 AM,42.8,41.0,93,29.68,6.2,North,8.1,-,N/A,,Mostly Cloudy,350,2012-11-21 07:50:00
8:50 AM,44,42,88,29.72,44,North,8.1,,,,Mostly Cloudy,350,2012-11-21 08:50:00
8:50 AM,44.6,41.0,87,29.71,6.2,North,8.1,-,N/A,,Mostly Cloudy,350,2012-11-21 08:50:00
9:50 AM,44.6,41.0,87,29.74,6.2,NNW,8.1,-,N/A,,Mostly Cloudy,340,2012-11-21 09:50:00
10:50 AM,46.4,42.8,87,29.77,6.2,NW,6.9,-,N/A,,Scattered Clouds,320,2012-11-21 10:50:00
11:50 AM,49,42,67,29.78,11,West,3.5,,,,Mostly Cloudy,270,2012-11-21 11:50:00
11:50 AM,48.2,41.0,76,29.77,6.2,West,3.5,-,N/A,,Mostly Cloudy,270,2012-11-21 11:50:00
12:50 PM,50.0,44.6,82,29.80,6.2,WSW,9.2,-,N/A,,Mostly Cloudy,250,2012-11-21 12:50:00
1:50 PM,51.8,46.4,82,29.80,6.2,WSW,16.1,-,N/A,,Mostly Cloudy,240,2012-11-21 13:50:00
2:50 PM,52,46,71,29.82,9,WSW,18.4,,,,Scattered Clouds,250,2012-11-21 14:50:00
2:50 PM,51.8,46.4,82,29.80,6.2,WSW,18.4,-,N/A,,Partly Cloudy,250,2012-11-21 14:50:00
3:50 PM,51.8,44.6,76,29.83,6.2,WSW,21.9,-,N/A,,Scattered Clouds,240,2012-11-21 15:50:00
4:50 PM,50.0,42.8,76,29.83,6.2,SW,25.3,-,N/A,,Partly Cloudy,230,2012-11-21 16:50:00
5:50 PM,51,44,70,29.86,10,SSW,20.7,,,,Scattered Clouds,210,2012-11-21 17:50:00
5:50 PM,50.0,44.6,82,29.86,6.2,SSW,20.7,-,N/A,,Partly Cloudy,210,2012-11-21 17:50:00
6:50 PM,51.8,46.4,82,29.86,6.2,SSW,23.0,-,N/A,,Mostly Cloudy,200,2012-11-21 18:50:00
7:50 PM,51.8,46.4,82,29.86,6.2,SSW,27.6,-,N/A,,Mostly Cloudy,200,2012-11-21 19:50:00
8:50 PM,52,47,79,29.86,7,SSW,32.2,,,,Mostly Cloudy,200,2012-11-21 20:50:00
8:50 PM,51.8,48.2,88,29.86,6.2,SSW,32.2,-,N/A,,Mostly Cloudy,200,2012-11-21 20:50:00
9:50 PM,51.8,48.2,88,29.83,6.2,South,29.9,-,N/A,,Mostly Cloudy,190,2012-11-21 21:50:00
10:50 PM,53.6,50.0,88,29.83,5.6,South,31.1,-,N/A,,Mostly Cloudy,190,2012-11-21 22:50:00
11:50 PM,53,50,85,29.82,5,South,29.9,,,,Mostly Cloudy,190,2012-11-21 23:50:00
11:50 PM,53.6,50.0,88,29.80,5.0,South,29.9,-,N/A,,Scattered Clouds,190,2012-11-21 23:50:00